Pagina principale
METAR-TAF:

METAR-TAF

Aeroporti :

Quakertown Airport

Quakertown, Pennsylvania, Stati Uniti

latitudine: 40-26-06N, longitudine: 075-22-54W, altezza: 160 m

Osservazione

Il bollettino è stato emesso 32 minuti fa, alle 21:55 UTC
Vento 8 kt da ovest
Temperature 6°C
Umidità 61%
Pressione 1015 hPa
Visibilità: 16.1 km
Poco nuvoloso ad un'altezza di 4000 ft
Cielo coperto ad un'altezza di 4800 ft

METAR: KUKT 202155Z AUTO 26008KT 10SM FEW040 OVC048 06/M01 A2998 RMK A01

Ora: 17:27 (22:27 UTC)


TAF: mancante

Osservazioni e previsioni meteorologiche di più di 4000 aeroporti (messaggi METAR e TAF).

Le stazioni disponibili sono rappresentate dai dischi gialli e rossi sulla carta.

Puntare il mouse per vedere il nome della stazione.

Clicca sopra per visualizzare le osservazioni e previsioni meteorologiche.

Per cambiare la mappa : fare clic sui pulsanti verdi con una croce nera per ingrandire, il pulsante verde con un trattino per diminuire, o sulla freccia verde per le mappe adiacenti.


METAR-TAF: